Location: Go?cza
(50.3372°N, 19.9313°E)
Time: 14:48:34
(UTC+00:00)

Cosmos 2278 - Pass Details

Date: 23 May 2024
Orbit: 839 x 850 km, 71.1° (Epoch: 28 April)

Event Time Altitude Azimuth Distance (km) Brightness Sun altitude
Rises 00:19:58 0° 328° (NNW) 3,428 7.4 -15.5°
Reaches altitude 10° 00:22:27 10° 326° (NW) 2,490 6.5 -15.3°
Maximum altitude 00:28:05 63° 247° (WSW) 950 3.7 -14.9°
Enters shadow 00:33:12 13° 168° (SSE) 2,293 5.5 -14.5°
